| time (UTC) | temp F | wind direction | speed MPH | gust MPH | rain 1hr in | rain 24hr in | rain mn in | humidity % | barometer mb |
| 20260507141828 | 56 | 107 | 1.0 | 4.0 | 0.00 | 0.08 | 0.01 | 74 | 1016.2 |
| 20260507141327 | 56 | 107 | 3.0 | 4.0 | 0.00 | 0.08 | 0.01 | 74 | 1016.2 |
| 20260507140825 | 56 | 107 | 1.0 | 3.0 | 0.00 | 0.08 | 0.01 | 76 | 1016.3 |
| 20260507140343 | 56 | 107 | 2.0 | 4.0 | 0.00 | 0.08 | 0.01 | 75 | 1016.3 |
| 20260507135816 | 57 | 108 | 2.0 | 4.0 | 0.00 | 0.08 | 0.01 | 73 | 1016.3 |
| 20260507135315 | 56 | 108 | 2.0 | 3.0 | 0.00 | 0.08 | 0.01 | 72 | 1016.3 |
| 20260507134831 | 57 | 108 | 2.0 | 3.0 | 0.00 | 0.08 | 0.01 | 72 | 1016.4 |
| 20260507134329 | 57 | 108 | 1.0 | 6.0 | 0.00 | 0.08 | 0.01 | 71 | 1016.4 |
| 20260507133846 | 57 | 106 | 3.0 | 6.0 | 0.00 | 0.08 | 0.01 | 74 | 1016.3 |
| 20260507133322 | 57 | 132 | 1.0 | 4.0 | 0.00 | 0.08 | 0.01 | 72 | 1016.4 |
| 20260507132819 | 57 | 87 | 3.0 | 4.0 | 0.00 | 0.08 | 0.01 | 73 | 1016.4 |
| 20260507132317 | 57 | 106 | 2.0 | 4.0 | 0.00 | 0.08 | 0.01 | 73 | 1016.4 |
| 20260507131832 | 56 | 161 | 1.0 | 5.0 | 0.00 | 0.08 | 0.01 | 74 | 1016.4 |
| 20260507131330 | 57 | 161 | 3.0 | 5.0 | 0.00 | 0.08 | 0.01 | 74 | 1016.4 |
| 20260507130844 | 57 | 134 | 2.0 | 5.0 | 0.00 | 0.08 | 0.01 | 75 | 1016.4 |
| 20260507130321 | 57 | 149 | 3.0 | 5.0 | 0.00 | 0.08 | 0.01 | 75 | 1016.4 |
| 20260507125817 | 57 | 139 | 2.0 | 3.0 | 0.00 | 0.08 | 0.01 | 77 | 1016.4 |
| 20260507125318 | 57 | 205 | 1.0 | 3.0 | 0.00 | 0.08 | 0.01 | 77 | 1016.3 |
| 20260507124816 | 56 | 195 | 1.0 | 4.0 | 0.00 | 0.08 | 0.01 | 76 | 1016.4 |
| 20260507124336 | 56 | 195 | 2.0 | 4.0 | 0.00 | 0.08 | 0.01 | 77 | 1016.3 |
| 20260507123852 | 56 | 129 | 4.0 | 5.0 | 0.00 | 0.08 | 0.01 | 76 | 1016.4 |
| 20260507123331 | 56 | 223 | 1.0 | 4.0 | 0.00 | 0.08 | 0.01 | 76 | 1016.4 |
| 20260507122827 | 56 | 223 | 1.0 | 4.0 | 0.00 | 0.08 | 0.01 | 76 | 1016.4 |
| 20260507122327 | 56 | 191 | 3.0 | 5.0 | 0.00 | 0.08 | 0.01 | 76 | 1016.4 |
| 20260507121842 | 56 | 196 | 0.0 | 5.0 | 0.00 | 0.08 | 0.01 | 76 | 1016.3 |
| 20260507121317 | 56 | 197 | 2.0 | 5.0 | 0.00 | 0.08 | 0.01 | 76 | 1016.3 |
| 20260507120833 | 56 | 205 | 2.0 | 5.0 | 0.00 | 0.08 | 0.01 | 76 | 1016.3 |
| 20260507120350 | 56 | 202 | 3.0 | 4.0 | 0.00 | 0.08 | 0.01 | 74 | 1016.3 |
| 20260507115825 | 56 | 234 | 2.0 | 3.0 | 0.00 | 0.08 | 0.01 | 74 | 1016.3 |
| 20260507115324 | 56 | 194 | 0.0 | 3.0 | 0.00 | 0.08 | 0.01 | 74 | 1016.3 |
| 20260507114821 | 56 | 194 | 2.0 | 5.0 | 0.00 | 0.08 | 0.01 | 74 | 1016.3 |
| 20260507114339 | 56 | 199 | 3.0 | 5.0 | 0.00 | 0.08 | 0.01 | 74 | 1016.3 |
| 20260507113829 | 57 | 174 | 2.0 | 4.0 | 0.00 | 0.08 | 0.01 | 73 | 1016.4 |
| 20260507113349 | 57 | 184 | 2.0 | 3.0 | 0.00 | 0.08 | 0.01 | 73 | 1016.3 |
| 20260507112842 | 57 | 296 | 2.0 | 3.0 | 0.00 | 0.08 | 0.01 | 74 | 1016.4 |
| 20260507112319 | 57 | 315 | 2.0 | 3.0 | 0.00 | 0.08 | 0.01 | 70 | 1016.3 |
| 20260507111814 | 57 | 31 | 2.0 | 4.0 | 0.00 | 0.08 | 0.01 | 73 | 1016.3 |
| 20260507111331 | 57 | 9 | 2.0 | 4.0 | 0.00 | 0.08 | 0.01 | 76 | 1016.4 |
| 20260507110825 | 56 | 315 | 1.0 | 4.0 | 0.00 | 0.08 | 0.01 | 77 | 1016.4 |
| 20260507110325 | 56 | 288 | 1.0 | 2.0 | 0.00 | 0.08 | 0.01 | 76 | 1016.4 |
| 20260507105819 | 55 | 23 | 0.0 | 3.0 | 0.00 | 0.08 | 0.01 | 74 | 1016.4 |
| 20260507105317 | 56 | 322 | 0.0 | 4.0 | 0.00 | 0.08 | 0.01 | 74 | 1016.4 |
| 20260507104832 | 56 | 320 | 2.0 | 4.0 | 0.00 | 0.08 | 0.01 | 77 | 1016.4 |
| 20260507104329 | 56 | 323 | 3.0 | 4.0 | 0.00 | 0.08 | 0.01 | 77 | 1016.4 |
| 20260507103827 | 55 | 34 | 1.0 | 4.0 | 0.00 | 0.08 | 0.01 | 78 | 1016.5 |
| 20260507103325 | 55 | 38 | 3.0 | 4.0 | 0.00 | 0.08 | 0.01 | 77 | 1016.5 |
| 20260507102840 | 55 | 49 | 2.0 | 3.0 | 0.00 | 0.08 | 0.01 | 78 | 1016.5 |
| 20260507102337 | 55 | 49 | 2.0 | 4.0 | 0.00 | 0.08 | 0.01 | 77 | 1016.5 |
| 20260507101833 | 55 | 23 | 3.0 | 4.0 | 0.00 | 0.08 | 0.01 | 78 | 1016.5 |
| 20260507101331 | 55 | 9 | 3.0 | 4.0 | 0.00 | 0.08 | 0.01 | 79 | 1016.5 |
| 20260507100828 | 55 | 31 | 2.0 | 4.0 | 0.00 | 0.08 | 0.01 | 79 | 1016.5 |
| 20260507100325 | 55 | 57 | 3.0 | 5.0 | 0.00 | 0.08 | 0.01 | 80 | 1016.4 |
| 20260507095820 | 55 | 335 | 3.0 | 5.0 | 0.00 | 0.08 | 0.01 | 81 | 1016.5 |
| 20260507095317 | 55 | 332 | 1.0 | 4.0 | 0.00 | 0.08 | 0.01 | 81 | 1016.4 |
| 20260507094831 | 54 | 38 | 1.0 | 3.0 | 0.00 | 0.08 | 0.01 | 83 | 1016.5 |
| 20260507094329 | 54 | 333 | 1.0 | 3.0 | 0.00 | 0.08 | 0.01 | 84 | 1016.4 |
| 20260507093842 | 54 | 329 | 1.0 | 4.0 | 0.00 | 0.08 | 0.01 | 84 | 1016.4 |
| 20260507093321 | 53 | 288 | 3.0 | 4.0 | 0.00 | 0.08 | 0.01 | 83 | 1016.4 |
| 20260507092817 | 54 | 341 | 2.0 | 4.0 | 0.00 | 0.08 | 0.01 | 83 | 1016.3 |
| 20260507092338 | 53 | 329 | 0.0 | 3.0 | 0.00 | 0.08 | 0.01 | 82 | 1016.3 |
| 20260507091833 | 54 | 33 | 1.0 | 3.0 | 0.00 | 0.08 | 0.01 | 84 | 1016.3 |
| 20260507091330 | 53 | 36 | 1.0 | 3.0 | 0.00 | 0.08 | 0.01 | 83 | 1016.3 |
| 20260507090826 | 53 | 306 | 1.0 | 3.0 | 0.00 | 0.08 | 0.01 | 84 | 1016.2 |
| 20260507090318 | 52 | 306 | 2.0 | 4.0 | 0.00 | 0.08 | 0.01 | 83 | 1016.2 |
| 20260507085833 | 53 | 307 | 2.0 | 4.0 | 0.00 | 0.08 | 0.01 | 85 | 1016.2 |
| 20260507085329 | 53 | 317 | 1.0 | 4.0 | 0.00 | 0.08 | 0.01 | 85 | 1016.1 |
| 20260507084825 | 52 | 336 | 1.0 | 3.0 | 0.00 | 0.08 | 0.01 | 86 | 1016.1 |
| 20260507084322 | 52 | 342 | 2.0 | 3.0 | 0.00 | 0.08 | 0.01 | 86 | 1016.1 |
| 20260507083815 | 52 | 24 | 1.0 | 2.0 | 0.00 | 0.08 | 0.01 | 87 | 1016.1 |
| 20260507083332 | 51 | 30 | 0.0 | 3.0 | 0.00 | 0.08 | 0.01 | 86 | 1016.1 |
| 20260507082830 | 52 | 30 | 0.0 | 4.0 | 0.00 | 0.08 | 0.01 | 86 | 1016.0 |
| 20260507082349 | 52 | 30 | 3.0 | 4.0 | 0.00 | 0.08 | 0.01 | 86 | 1016.0 |
| 20260507081821 | 51 | 16 | 1.0 | 3.0 | 0.00 | 0.08 | 0.01 | 87 | 1016.1 |
| 20260507081338 | 51 | 31 | 2.0 | 3.0 | 0.00 | 0.08 | 0.01 | 88 | 1016.1 |
| 20260507080832 | 51 | 348 | 1.0 | 5.0 | 0.00 | 0.08 | 0.01 | 88 | 1016.1 |
| 20260507080328 | 51 | 31 | 3.0 | 5.0 | 0.00 | 0.08 | 0.01 | 87 | 1016.1 |
| 20260507075824 | 51 | 55 | 2.0 | 4.0 | 0.00 | 0.28 | 0.01 | 88 | 1016.0 |
| 20260507075323 | 51 | 61 | 2.0 | 4.0 | 0.00 | 0.28 | 0.01 | 88 | 1016.0 |
| 20260507074836 | 51 | 61 | 2.0 | 4.0 | 0.00 | 0.28 | 0.01 | 89 | 1016.0 |
| 20260507074331 | 50 | 62 | 2.0 | 4.0 | 0.00 | 0.28 | 0.01 | 88 | 1016.0 |
| 20260507073826 | 50 | 51 | 2.0 | 5.0 | 0.00 | 0.28 | 0.01 | 89 | 1015.9 |
| 20260507073322 | 50 | 28 | 3.0 | 5.0 | 0.00 | 0.28 | 0.01 | 89 | 1015.9 |
| 20260507072818 | 50 | 63 | 3.0 | 5.0 | 0.00 | 0.28 | 0.01 | 89 | 1015.9 |
| 20260507072316 | 50 | 15 | 2.0 | 6.0 | 0.00 | 0.28 | 0.01 | 90 | 1015.8 |
| 20260507071831 | 50 | 351 | 4.0 | 6.0 | 0.00 | 0.28 | 0.01 | 90 | 1015.8 |
| 20260507071328 | 50 | 360 | 3.0 | 5.0 | 0.00 | 0.28 | 0.01 | 90 | 1015.8 |
| 20260507070825 | 50 | 9 | 3.0 | 5.0 | 0.00 | 0.28 | 0.01 | 90 | 1015.8 |
| 20260507070323 | 50 | 332 | 2.0 | 5.0 | 0.00 | 0.28 | 0.01 | 91 | 1015.7 |
| 20260507065838 | 50 | 339 | 4.0 | 6.0 | 0.00 | 0.51 | 0.01 | 91 | 1015.6 |
| 20260507065313 | 50 | 338 | 5.0 | 6.0 | 0.00 | 0.51 | 0.01 | 91 | 1015.6 |
| 20260507064829 | 49 | 339 | 4.0 | 5.0 | 0.00 | 0.51 | 0.01 | 91 | 1015.5 |
| 20260507064347 | 49 | 341 | 3.0 | 5.0 | 0.00 | 0.51 | 0.01 | 92 | 1015.5 |
| 20260507063819 | 49 | 320 | 2.0 | 4.0 | 0.00 | 0.51 | 0.01 | 92 | 1015.5 |
| 20260507063316 | 49 | 355 | 2.0 | 4.0 | 0.00 | 0.51 | 0.01 | 92 | 1015.5 |
| 20260507062832 | 49 | 336 | 2.0 | 4.0 | 0.00 | 0.51 | 0.01 | 92 | 1015.4 |
| 20260507062328 | 49 | 22 | 2.0 | 4.0 | 0.00 | 0.51 | 0.01 | 92 | 1015.4 |
| 20260507061839 | 49 | 9 | 3.0 | 4.0 | 0.00 | 0.51 | 0.01 | 92 | 1015.4 |
| 20260507061315 | 49 | 355 | 2.0 | 4.0 | 0.00 | 0.51 | 0.01 | 92 | 1015.3 |
| 20260507060831 | 49 | 336 | 2.0 | 4.0 | 0.00 | 0.51 | 0.01 | 93 | 1015.3 |
| 20260507060328 | 49 | 330 | 3.0 | 5.0 | 0.00 | 0.51 | 0.01 | 93 | 1015.3 |
| 20260507055833 | 49 | 347 | 4.0 | 5.0 | 0.00 | 0.55 | 0.01 | 93 | 1015.2 |
| 20260507055329 | 49 | 330 | 3.0 | 5.0 | 0.00 | 0.55 | 0.01 | 93 | 1015.2 |
| 20260507054824 | 48 | 346 | 1.0 | 5.0 | 0.00 | 0.55 | 0.01 | 93 | 1015.1 |
| 20260507054321 | 48 | 311 | 4.0 | 5.0 | 0.00 | 0.55 | 0.01 | 93 | 1015.1 |
| 20260507053840 | 48 | 344 | 3.0 | 5.0 | 0.00 | 0.55 | 0.01 | 93 | 1015.0 |
| 20260507053356 | 48 | 339 | 4.0 | 5.0 | 0.00 | 0.55 | 0.01 | 93 | 1015.0 |
| 20260507052850 | 48 | 332 | 2.0 | 4.0 | 0.00 | 0.55 | 0.01 | 93 | 1015.0 |
| 20260507052346 | 48 | 300 | 2.0 | 3.0 | 0.00 | 0.55 | 0.01 | 93 | 1014.9 |
| 20260507051820 | 48 | 313 | 0.0 | 3.0 | 0.00 | 0.55 | 0.01 | 94 | 1014.8 |
| 20260507051319 | 48 | 313 | 1.0 | 3.0 | 0.00 | 0.55 | 0.01 | 93 | 1014.8 |
| 20260507050835 | 48 | 327 | 1.0 | 4.0 | 0.00 | 0.55 | 0.01 | 94 | 1014.7 |
| 20260507050352 | 48 | 322 | 2.0 | 4.0 | 0.00 | 0.55 | 0.01 | 94 | 1014.7 |
| 20260507045824 | 48 | 314 | 3.0 | 4.0 | 0.00 | 0.55 | 0.01 | 94 | 1014.7 |
| 20260507045344 | 48 | 300 | 2.0 | 3.0 | 0.00 | 0.55 | 0.01 | 94 | 1014.6 |
| 20260507044817 | 48 | 310 | 2.0 | 3.0 | 0.00 | 0.55 | 0.01 | 94 | 1014.6 |
| 20260507044314 | 48 | 293 | 0.0 | 1.0 | 0.00 | 0.55 | 0.01 | 93 | 1014.5 |
| 20260507043829 | 48 | 293 | 0.0 | 1.0 | 0.00 | 0.55 | 0.01 | 93 | 1014.5 |
| 20260507043326 | 48 | 293 | 0.0 | 2.0 | 0.00 | 0.55 | 0.01 | 93 | 1014.4 |
| 20260507042815 | 48 | 318 | 0.0 | 3.0 | 0.00 | 0.55 | 0.01 | 93 | 1014.4 |
| 20260507042313 | 48 | 289 | 0.0 | 2.0 | 0.00 | 0.55 | 0.01 | 93 | 1014.4 |
| 20260507041828 | 48 | 289 | 1.0 | 2.0 | 0.00 | 0.55 | 0.01 | 94 | 1014.3 |
| 20260507041346 | 48 | 311 | 0.0 | 3.0 | 0.00 | 0.55 | 0.01 | 94 | 1014.3 |
| 20260507040819 | 48 | 291 | 1.0 | 3.0 | 0.00 | 0.55 | 0.01 | 94 | 1014.3 |
| 20260507040318 | 48 | 305 | 2.0 | 3.0 | 0.00 | 0.55 | 0.01 | 94 | 1014.3 |
| 20260507035833 | 48 | 312 | 2.0 | 3.0 | 0.00 | 0.55 | 0.01 | 93 | 1014.3 |
| 20260507035330 | 48 | 281 | 0.0 | 2.0 | 0.00 | 0.55 | 0.01 | 93 | 1014.3 |
| 20260507034826 | 48 | 281 | 1.0 | 2.0 | 0.00 | 0.55 | 0.01 | 93 | 1014.2 |
| 20260507034326 | 48 | 281 | 1.0 | 2.0 | 0.00 | 0.55 | 0.01 | 93 | 1014.3 |
| 20260507033820 | 48 | 281 | 1.0 | 3.0 | 0.00 | 0.55 | 0.01 | 93 | 1014.2 |
| 20260507033337 | 48 | 281 | 2.0 | 3.0 | 0.00 | 0.55 | 0.01 | 93 | 1014.2 |
| 20260507032832 | 48 | 286 | 0.0 | 3.0 | 0.00 | 0.55 | 0.01 | 93 | 1014.2 |
| 20260507032329 | 48 | 291 | 1.0 | 2.0 | 0.00 | 0.55 | 0.01 | 93 | 1014.2 |
| 20260507031825 | 48 | 294 | 0.0 | 3.0 | 0.00 | 0.55 | 0.01 | 93 | 1014.2 |
| 20260507031324 | 48 | 294 | 1.0 | 3.0 | 0.00 | 0.55 | 0.01 | 93 | 1014.1 |
| 20260507030820 | 48 | 306 | 1.0 | 3.0 | 0.00 | 0.55 | 0.01 | 93 | 1014.1 |
| 20260507030319 | 48 | 302 | 2.0 | 3.0 | 0.00 | 0.55 | 0.01 | 93 | 1014.1 |
| 20260507025815 | 48 | 273 | 0.0 | 2.0 | 0.00 | 1.02 | 0.01 | 93 | 1014.1 |
| 20260507025313 | 48 | 273 | 0.0 | 2.0 | 0.00 | 1.02 | 0.01 | 93 | 1014.1 |
| 20260507024829 | 48 | 273 | 0.0 | 1.0 | 0.00 | 1.02 | 0.01 | 93 | 1014.1 |
| 20260507024347 | 48 | 273 | 0.0 | 1.0 | 0.00 | 1.02 | 0.01 | 93 | 1014.1 |
| 20260507023821 | 48 | 273 | 0.0 | 1.0 | 0.00 | 1.02 | 0.01 | 93 | 1014.1 |
| 20260507023318 | 48 | 273 | 0.0 | 1.0 | 0.00 | 1.02 | 0.01 | 93 | 1014.1 |
| 20260507022834 | 49 | 273 | 0.0 | 1.0 | 0.00 | 1.02 | 0.01 | 93 | 1014.0 |
| 20260507022330 | 49 | 273 | 0.0 | 1.0 | 0.00 | 1.02 | 0.01 | 93 | 1014.0 |
| 20260507021826 | 49 | 273 | 0.0 | 2.0 | 0.00 | 1.02 | 0.01 | 93 | 1014.0 |
| 20260507021324 | 49 | 273 | 0.0 | 2.0 | 0.00 | 1.02 | 0.01 | 93 | 1014.0 |
| 20260507020820 | 49 | 273 | 0.0 | 2.0 | 0.00 | 1.02 | 0.01 | 93 | 1013.9 |
| 20260507020317 | 49 | 273 | 0.0 | 2.0 | 0.00 | 1.02 | 0.01 | 93 | 1013.9 |
| 20260507015833 | 49 | 273 | 0.0 | 4.0 | 0.00 | 1.46 | 0.01 | 93 | 1013.9 |
| 20260507015332 | 49 | 273 | 2.0 | 4.0 | 0.00 | 1.46 | 0.01 | 93 | 1013.9 |
| 20260507014827 | 49 | 277 | 1.0 | 5.0 | 0.00 | 1.46 | 0.01 | 93 | 1013.9 |
| 20260507014324 | 49 | 284 | 1.0 | 9.0 | 0.00 | 1.46 | 0.01 | 93 | 1013.8 |
| 20260507013820 | 49 | 309 | 1.0 | 5.0 | 0.00 | 1.46 | 0.01 | 93 | 1013.8 |
| 20260507013316 | 49 | 284 | 3.0 | 6.0 | 0.04 | 1.46 | 0.01 | 93 | 1013.7 |
| 20260507012828 | 49 | 342 | 0.0 | 4.0 | 0.04 | 1.46 | 0.01 | 93 | 1013.8 |
| 20260507012324 | 49 | 337 | 2.0 | 4.0 | 0.04 | 1.46 | 0.01 | 93 | 1013.8 |
| 20260507011841 | 48 | 277 | 0.0 | 1.0 | 0.04 | 1.46 | 0.01 | 93 | 1013.8 |
| 20260507011337 | 49 | 277 | 0.0 | 0.0 | 0.04 | 1.46 | 0.01 | 93 | 1013.8 |
| 20260507010851 | 49 | 277 | 0.0 | 0.0 | 0.04 | 1.46 | 0.01 | 93 | 1013.8 |
| 20260507010346 | 48 | 277 | 0.0 | 3.0 | 0.04 | 1.46 | 0.01 | 93 | 1013.8 |
| 20260507005821 | 48 | 277 | 1.0 | 3.0 | 0.04 | 1.50 | 0.01 | 93 | 1013.8 |
| 20260507005319 | 48 | 270 | 1.0 | 3.0 | 0.04 | 1.50 | 0.01 | 93 | 1013.7 |
| 20260507004835 | 48 | 286 | 0.0 | 2.0 | 0.04 | 1.50 | 0.01 | 93 | 1013.7 |
| 20260507004333 | 48 | 293 | 1.0 | 2.0 | 0.04 | 1.50 | 0.01 | 93 | 1013.7 |
| 20260507003828 | 48 | 273 | 0.0 | 2.0 | 0.04 | 1.50 | 0.01 | 93 | 1013.7 |
| 20260507003329 | 49 | 252 | 0.0 | 2.0 | 0.00 | 1.46 | 0.00 | 93 | 1013.7 |
| 20260507002823 | 49 | 252 | 1.0 | 3.0 | 0.00 | 1.46 | 0.00 | 93 | 1013.8 |
| 20260507002319 | 49 | 252 | 0.0 | 3.0 | 0.00 | 1.46 | 0.00 | 93 | 1013.7 |
| 20260507001834 | 49 | 252 | 0.0 | 2.0 | 0.00 | 1.46 | 0.00 | 93 | 1013.7 |
| 20260507001352 | 49 | 252 | 0.0 | 2.0 | 0.00 | 1.46 | 0.00 | 93 | 1013.7 |
| 20260507000826 | 49 | 252 | 1.0 | 3.0 | 0.00 | 1.46 | 0.00 | 93 | 1013.8 |
| 20260507000323 | 48 | 252 | 1.0 | 3.0 | 0.00 | 1.46 | 0.00 | 93 | 1013.7 |
| 20260506235818 | 49 | 252 | 2.0 | 3.0 | 0.00 | 1.46 | 0.00 | 93 | 1013.7 |
| 20260506235336 | 49 | 252 | 1.0 | 3.0 | 0.00 | 1.46 | 0.00 | 93 | 1013.7 |
| 20260506234853 | 49 | 280 | 0.0 | 2.0 | 0.00 | 1.46 | 0.00 | 93 | 1013.6 |
| 20260506234331 | 49 | 280 | 1.0 | 2.0 | 0.00 | 1.46 | 0.00 | 93 | 1013.6 |
| 20260506233824 | 49 | 280 | 0.0 | 2.0 | 0.00 | 1.46 | 0.00 | 93 | 1013.6 |
| 20260506233344 | 49 | 280 | 1.0 | 2.0 | 0.00 | 1.46 | 0.00 | 93 | 1013.5 |
| 20260506232816 | 49 | 269 | 1.0 | 2.0 | 0.00 | 1.46 | 0.00 | 93 | 1013.5 |
| 20260506232314 | 49 | 269 | 0.0 | 1.0 | 0.00 | 1.46 | 0.00 | 93 | 1013.7 |
| 20260506231852 | 49 | 269 | 0.0 | 1.0 | 0.00 | 1.46 | 0.00 | 93 | 1013.6 |
| 20260506231329 | 49 | 269 | 0.0 | 2.0 | 0.00 | 1.46 | 0.00 | 93 | 1013.6 |
| 20260506230823 | 49 | 269 | 0.0 | 2.0 | 0.00 | 1.46 | 0.00 | 93 | 1013.5 |
| 20260506230320 | 49 | 269 | 0.0 | 3.0 | 0.00 | 1.46 | 0.00 | 93 | 1013.5 |
| 20260506225815 | 49 | 243 | 1.0 | 3.0 | 0.00 | 1.46 | 0.00 | 93 | 1013.4 |
| 20260506225333 | 49 | 248 | 1.0 | 2.0 | 0.00 | 1.46 | 0.00 | 92 | 1013.5 |
| 20260506224827 | 49 | 248 | 0.0 | 4.0 | 0.00 | 1.46 | 0.00 | 92 | 1013.4 |
| 20260506224326 | 49 | 248 | 1.0 | 4.0 | 0.00 | 1.46 | 0.00 | 92 | 1013.4 |
| 20260506223841 | 49 | 286 | 0.0 | 6.0 | 0.00 | 1.46 | 0.00 | 92 | 1013.4 |
| 20260506223316 | 49 | 286 | 1.0 | 6.0 | 0.00 | 1.46 | 0.00 | 93 | 1013.4 |
| 20260506222831 | 49 | 272 | 1.0 | 3.0 | 0.00 | 1.46 | 0.00 | 93 | 1013.4 |
| 20260506222326 | 49 | 347 | 1.0 | 3.0 | 0.00 | 1.46 | 0.00 | 93 | 1013.4 |
| 20260506221821 | 49 | 287 | 0.0 | 3.0 | 0.00 | 1.46 | 0.00 | 93 | 1013.3 |
| 20260506221319 | 49 | 278 | 0.0 | 2.0 | 0.00 | 1.46 | 0.00 | 93 | 1013.3 |
| 20260506220816 | 49 | 263 | 0.0 | 3.0 | 0.00 | 1.46 | 0.00 | 93 | 1013.2 |
| 20260506220334 | 49 | 263 | 1.0 | 3.0 | 0.00 | 1.46 | 0.00 | 93 | 1013.3 |
| 20260506215828 | 49 | 303 | 2.0 | 3.0 | 0.00 | 1.46 | 0.29 | 93 | 1013.3 |
| 20260506215328 | 49 | 269 | 2.0 | 3.0 | 0.00 | 1.46 | 0.29 | 93 | 1013.2 |
| 20260506214823 | 49 | 237 | 0.0 | 3.0 | 0.00 | 1.46 | 0.29 | 93 | 1013.3 |
| 20260506214322 | 49 | 237 | 1.0 | 4.0 | 0.04 | 1.46 | 0.29 | 93 | 1013.2 |
| 20260506213819 | 49 | 265 | 2.0 | 4.0 | 0.04 | 1.46 | 0.29 | 93 | 1013.2 |
| 20260506213317 | 49 | 265 | 2.0 | 3.0 | 0.04 | 1.46 | 0.29 | 93 | 1013.2 |
| 20260506212832 | 49 | 296 | 0.0 | 3.0 | 0.04 | 1.46 | 0.29 | 93 | 1013.2 |
| 20260506212332 | 49 | 296 | 0.0 | 3.0 | 0.04 | 1.46 | 0.29 | 93 | 1013.2 |
| 20260506211828 | 49 | 296 | 0.0 | 3.0 | 0.04 | 1.46 | 0.29 | 93 | 1013.2 |
| 20260506211328 | 49 | 275 | 2.0 | 3.0 | 0.04 | 1.46 | 0.29 | 93 | 1013.2 |
| 20260506210845 | 49 | 300 | 0.0 | 2.0 | 0.04 | 1.46 | 0.29 | 92 | 1013.2 |
| 20260506210321 | 49 | 300 | 1.0 | 3.0 | 0.04 | 1.46 | 0.29 | 92 | 1013.1 |
| 20260506205839 | 49 | 301 | 1.0 | 3.0 | 0.04 | 1.46 | 0.29 | 92 | 1013.2 |
| 20260506205337 | 49 | 307 | 0.0 | 3.0 | 0.04 | 1.46 | 0.29 | 92 | 1013.1 |
| 20260506204849 | 49 | 307 | 1.0 | 5.0 | 0.04 | 1.46 | 0.29 | 92 | 1013.0 |
| 20260506204327 | 49 | 302 | 3.0 | 5.0 | 0.00 | 1.42 | 0.28 | 92 | 1013.0 |
| 20260506203822 | 49 | 298 | 2.0 | 4.0 | 0.00 | 1.42 | 0.28 | 92 | 1012.9 |
| 20260506203316 | 49 | 304 | 2.0 | 6.0 | 0.00 | 1.42 | 0.28 | 92 | 1012.9 |
| 20260506202855 | 49 | 313 | 2.0 | 6.0 | 0.00 | 1.42 | 0.28 | 92 | 1012.8 |
| 20260506202350 | 49 | 306 | 1.0 | 4.0 | 0.00 | 1.42 | 0.28 | 91 | 1012.9 |
| 20260506201822 | 49 | 290 | 1.0 | 5.0 | 0.00 | 1.42 | 0.28 | 91 | 1012.7 |
| 20260506201319 | 50 | 301 | 2.0 | 4.0 | 0.00 | 1.42 | 0.28 | 91 | 1012.7 |
| 20260506200833 | 50 | 304 | 2.0 | 3.0 | 0.00 | 1.42 | 0.28 | 91 | 1012.7 |
| 20260506200329 | 50 | 304 | 2.0 | 3.0 | 0.00 | 1.42 | 0.28 | 91 | 1012.6 |
| 20260506195823 | 50 | 304 | 1.0 | 3.0 | 0.00 | 1.42 | 0.28 | 91 | 1012.6 |
| 20260506195321 | 50 | 310 | 1.0 | 2.0 | 0.00 | 1.42 | 0.28 | 91 | 1012.6 |
| 20260506194833 | 50 | 310 | 1.0 | 2.0 | 0.00 | 1.42 | 0.28 | 91 | 1012.5 |
| 20260506194330 | 50 | 310 | 1.0 | 2.0 | 0.00 | 1.42 | 0.28 | 91 | 1012.4 |
| 20260506193824 | 50 | 310 | 1.0 | 3.0 | 0.00 | 1.42 | 0.28 | 90 | 1012.3 |
| 20260506193322 | 50 | 312 | 2.0 | 3.0 | 0.00 | 1.42 | 0.28 | 90 | 1012.3 |
| 20260506192815 | 50 | 304 | 1.0 | 3.0 | 0.00 | 1.42 | 0.28 | 90 | 1012.2 |
| 20260506192330 | 50 | 306 | 1.0 | 5.0 | 0.00 | 1.42 | 0.28 | 90 | 1012.2 |
| 20260506191822 | 50 | 311 | 2.0 | 5.0 | 0.00 | 1.42 | 0.28 | 90 | 1012.0 |
| 20260506191315 | 50 | 306 | 3.0 | 5.0 | 0.00 | 1.42 | 0.28 | 90 | 1011.9 |
| 20260506190829 | 50 | 325 | 3.0 | 5.0 | 0.00 | 1.42 | 0.28 | 90 | 1011.8 |
| 20260506190324 | 50 | 328 | 4.0 | 5.0 | 0.00 | 1.42 | 0.28 | 89 | 1011.8 |
| 20260506185819 | 50 | 318 | 3.0 | 6.0 | 0.00 | 1.50 | 0.28 | 89 | 1011.7 |
| 20260506185317 | 50 | 322 | 3.0 | 9.0 | 0.00 | 1.50 | 0.28 | 89 | 1011.6 |
| 20260506184833 | 50 | 317 | 5.0 | 8.0 | 0.00 | 1.50 | 0.28 | 89 | 1011.6 |
| 20260506184331 | 51 | 313 | 5.0 | 8.0 | 0.00 | 1.50 | 0.28 | 89 | 1011.6 |
| 20260506183827 | 51 | 313 | 3.0 | 8.0 | 0.00 | 1.50 | 0.28 | 89 | 1011.6 |
| 20260506183325 | 51 | 317 | 4.0 | 8.0 | 0.00 | 1.50 | 0.28 | 89 | 1011.5 |
| 20260506182849 | 51 | 326 | 5.0 | 9.0 | 0.00 | 1.50 | 0.28 | 89 | 1011.5 |
| 20260506182325 | 51 | 327 | 5.0 | 9.0 | 0.00 | 1.50 | 0.28 | 89 | 1011.6 |
| 20260506181841 | 51 | 336 | 4.0 | 9.0 | 0.00 | 1.50 | 0.28 | 89 | 1011.5 |
| 20260506181336 | 51 | 317 | 4.0 | 8.0 | 0.00 | 1.50 | 0.28 | 88 | 1011.5 |
| 20260506180825 | 51 | 323 | 4.0 | 7.0 | 0.00 | 1.50 | 0.28 | 88 | 1011.4 |
| 20260506180341 | 51 | 315 | 3.0 | 5.0 | 0.00 | 1.50 | 0.28 | 88 | 1011.3 |
| 20260506175815 | 51 | 319 | 3.0 | 6.0 | 0.00 | 1.57 | 0.28 | 88 | 1011.3 |
| 20260506175332 | 51 | 349 | 4.0 | 6.0 | 0.00 | 1.57 | 0.28 | 87 | 1011.3 |
| 20260506174830 | 51 | 323 | 3.0 | 8.0 | 0.00 | 1.57 | 0.28 | 88 | 1011.2 |
| 20260506174349 | 51 | 329 | 5.0 | 8.0 | 0.00 | 1.57 | 0.28 | 88 | 1011.2 |
| 20260506173946 | 51 | 326 | 4.0 | 8.0 | 0.00 | 1.57 | 0.28 | 88 | 1011.1 |
| 20260506173330 | 51 | 331 | 4.0 | 8.0 | 0.00 | 1.57 | 0.28 | 88 | 1011.0 |
| 20260506172825 | 51 | 351 | 3.0 | 6.0 | 0.00 | 1.57 | 0.28 | 88 | 1011.0 |
| 20260506172322 | 51 | 342 | 3.0 | 9.0 | 0.00 | 1.57 | 0.28 | 88 | 1011.0 |
| 20260506171817 | 51 | 302 | 6.0 | 10.0 | 0.00 | 1.57 | 0.28 | 88 | 1010.9 |
| 20260506171314 | 51 | 346 | 5.0 | 8.0 | 0.00 | 1.57 | 0.28 | 88 | 1010.9 |
| 20260506170831 | 51 | 325 | 6.0 | 10.0 | 0.00 | 1.57 | 0.28 | 88 | 1010.9 |
| 20260506170328 | 51 | 329 | 6.0 | 10.0 | 0.00 | 1.57 | 0.28 | 88 | 1010.8 |
| 20260506165825 | 51 | 299 | 5.0 | 9.0 | 0.00 | 1.97 | 0.28 | 89 | 1010.8 |
| 20260506165322 | 51 | 327 | 4.0 | 10.0 | 0.00 | 1.97 | 0.28 | 88 | 1010.8 |
| 20260506164817 | 51 | 306 | 5.0 | 12.0 | 0.00 | 1.97 | 0.28 | 87 | 1010.8 |
| 20260506164314 | 52 | 320 | 10.0 | 12.0 | 0.00 | 1.97 | 0.28 | 87 | 1010.7 |
| 20260506163830 | 52 | 320 | 7.0 | 11.0 | 0.00 | 1.97 | 0.28 | 87 | 1010.7 |
| 20260506163330 | 52 | 327 | 7.0 | 11.0 | 0.00 | 1.97 | 0.28 | 87 | 1010.6 |
| 20260506162825 | 52 | 346 | 7.0 | 11.0 | 0.00 | 1.97 | 0.28 | 87 | 1010.6 |
| 20260506162322 | 51 | 9 | 7.0 | 12.0 | 0.00 | 1.97 | 0.28 | 87 | 1010.6 |
| 20260506161840 | 51 | 340 | 7.0 | 12.0 | 0.00 | 1.97 | 0.28 | 87 | 1010.6 |
| 20260506161339 | 51 | 302 | 8.0 | 12.0 | 0.00 | 1.97 | 0.28 | 87 | 1010.6 |
| 20260506160832 | 51 | 330 | 7.0 | 13.0 | 0.00 | 1.97 | 0.28 | 87 | 1010.6 |
| 20260506160332 | 51 | 325 | 10.0 | 13.0 | 0.00 | 1.97 | 0.28 | 86 | 1010.6 |
| 20260506155828 | 52 | 302 | 8.0 | 12.0 | 0.00 | 2.64 | 0.28 | 86 | 1010.6 |
| 20260506155327 | 52 | 306 | 7.0 | 14.0 | 0.00 | 2.64 | 0.28 | 86 | 1010.6 |
| 20260506154843 | 52 | 332 | 8.0 | 14.0 | 0.00 | 2.64 | 0.28 | 85 | 1010.5 |
| 20260506154341 | 52 | 313 | 6.0 | 13.0 | 0.00 | 2.64 | 0.28 | 85 | 1010.4 |
| 20260506153814 | 52 | 306 | 9.0 | 15.0 | 0.00 | 2.64 | 0.28 | 85 | 1010.5 |
| 20260506153331 | 52 | 311 | 10.0 | 15.0 | 0.00 | 2.64 | 0.28 | 84 | 1010.5 |
| 20260506152828 | 52 | 300 | 9.0 | 14.0 | 0.00 | 2.64 | 0.28 | 84 | 1010.5 |
| 20260506152325 | 52 | 309 | 8.0 | 15.0 | 0.00 | 2.64 | 0.28 | 85 | 1010.5 |
| 20260506151821 | 53 | 331 | 10.0 | 14.0 | 0.00 | 2.64 | 0.28 | 84 | 1010.5 |
| 20260506151321 | 53 | 350 | 10.0 | 13.0 | 0.00 | 2.64 | 0.28 | 84 | 1010.5 |
| 20260506150818 | 53 | 338 | 8.0 | 15.0 | 0.00 | 2.64 | 0.28 | 84 | 1010.4 |
| 20260506150334 | 53 | 294 | 11.0 | 15.0 | 0.00 | 2.64 | 0.28 | 85 | 1010.4 |
| 20260506145829 | 53 | 325 | 8.0 | 14.0 | 0.00 | 2.64 | 0.28 | 85 | 1010.4 |
| 20260506145327 | 52 | 312 | 10.0 | 14.0 | 0.00 | 2.64 | 0.28 | 86 | 1010.4 |
| 20260506144823 | 52 | 317 | 11.0 | 14.0 | 0.00 | 2.64 | 0.28 | 86 | 1010.4 |
| 20260506144321 | 52 | 321 | 8.0 | 15.0 | 0.00 | 2.64 | 0.28 | 86 | 1010.4 |
| 20260506143817 | 52 | 319 | 11.0 | 15.0 | 0.00 | 2.64 | 0.28 | 85 | 1010.4 |
| 20260506143316 | 52 | 355 | 9.0 | 16.0 | 0.00 | 2.64 | 0.28 | 85 | 1010.4 |
| 20260506142830 | 52 | 321 | 12.0 | 16.0 | 0.00 | 2.64 | 0.28 | 85 | 1010.4 |
| 20260506142349 | 52 | 346 | 8.0 | 15.0 | 0.00 | 2.64 | 0.28 | 85 | 1010.4 |